Location: Moy Burn
(57.3833°N, 4.0667°W)
Time: 10:14:59
(UTC+00:00)

Meteor 1-4 Rocket - Pass Details

Date: 08 August 2020
Orbit: 449 x 502 km, 81.2° (Epoch: 21 September)

Event Time Altitude Azimuth Distance (km) Brightness Sun altitude
Rises 21:47:25 0° 338° (NNW) 2,504 7.9 -10.1°
Reaches altitude 10° 21:49:41 10° 327° (NNW) 1,615 6.8 -10.3°
Maximum altitude 21:52:46 29° 266° (W) 865 4.2 -10.6°
Drops below altitude 10° 21:55:48 10° 205° (SSW) 1,587 4.9 -10.8°
Enters shadow 21:56:55 - 198° (SSW) 2,012 5.3 -10.9°
